User: anonymous   Login
Location: Dillon
(41.1766°N, 107.0923°W)
Time: 09:22:36
(UTC+00:00)
Language:

GAOFEN 12 - Orbit

View from above orbital plane
View from above orbital plane
View from above satellite
View from above satellite

Ground track
Ground track

The orbit data is extracted from the following two-line orbital elements,

1 44819U 19082A   22330.15914713  .00000295  00000-0  45335-4 0  9997
2 44819  97.8534 347.1724 0001547  77.3400 282.7997 14.80343724161862
Epoch (UTC): 26 November 2022 03:49:10
Eccentricity: 0.0001547
inclination: 97.8534°
perigee height: 627 km
apogee height: 629 km
right ascension of ascending node: 347.1724°
argument of perigee: 77.3400°
revolutions per day: 14.80343724
mean anomaly at epoch: 282.7997°
orbit number at epoch: 16186

The dashed part of the orbit path shows where the satellite is in the earth's shadow,  

DLR